Вернуться в каталог

COSMOS 2547

GLONASS

АктивенНавигацияMEO
NORAD 46805·PAYLOAD·🇷🇺 Russia

Запущен Oct 25, 2020 с Plesetsk Cosmodrome

Loading…

Ближайшие Пролёты (ближайшие 24 часа)

TLE

СвежийSource: CelesTrak SupGP

Эпоха: Sep 14, 2026, 23:59 UTC

1 46805C 20075A   26257.99979167  .00000000  00000+0  00000+0 0  2571
2 46805  64.6006 189.4808 0008198 235.1421  91.3946  2.13099895    18

Отслеживайте COSMOS 2547 в реальном времени с AllMySat

Download on the App Store